Regional Weather Roundup
Issued by NWS Sterling, VA

Home | Current Version | Previous Version | Graphics & Text | Print | Product List | Glossary On
Versions: 1 2 3 4 5 6 7 8 9 10 11 12 13 14 15 16 17 18 19 20 21 22 23 24 25 26 27 28 29 30 31 32 33 34 35 36 37 38 39 40 41 42 43 44 45 46 47 48 49 50
000
ASUS41 KLWX 310910
RWRLWX

REGIONAL WEATHER ROUNDUP
NATIONAL WEATHER SERVICE BALTIMORE MD/WASHINGTON DC
500 AM EDT THU JUL 31 2014

Note: "FAIR" indicates few or no clouds below 12,000 feet
with no significant weather and/or obstructions to visibility.
 TC=TEMPERATURE CELSIUS

 * =Non NWS site. Station does not report precipitation (e.g. rain,
    snow, etc.), thunder, or fog.

DCZ001-MDZ009-015-VAZ040>042-051-053>054-311000-
WASHINGTON METRO
  /KDAA//-FT BELVOIR

CITY           SKY/WX    TMP DP  RH WIND       PRES   REMARKS
WASHINGTON NAT CLEAR     68  59  73 SW3       30.08R
DULLES         CLEAR     59  56  89 CALM      30.07S
ANDREWS AFB    CLEAR     60  58  92 S2        30.08R
QUANTICO       CLEAR     66  58  75 SW7       30.09R
COLLEGE PARK*  CLEAR     59  59 100 CALM      30.07S
LEESBURG*      CLEAR     59  59 100 CALM      30.08R
GAITHERSBURG*  CLEAR     63  55  77 SE5       30.11R

$$

MDZ006>007-011-014-311000-
BALTIMORE METRO

CITY           SKY/WX    TMP DP  RH WIND       PRES   REMARKS
BWI AIRPORT    PTCLDY    59  56  89 CALM      30.06S
MD SCIENCE CTR   N/A     68  59  73 MISG      30.07S
MARTIN STATE   PTCLDY    61  61 100 CALM      30.08R
ANNAPOLIS      CLEAR     66  59  78 CALM      30.07R
FORT MEADE*    CLEAR     54  54 100 CALM      30.09S

$$

MDZ012-015-019>023-311000-
MARYLAND EASTERN SHORE

CITY           SKY/WX    TMP DP  RH WIND       PRES   REMARKS
OCEAN CITY     CLEAR     56  54  93 CALM      30.09S
SALISBURY      CLEAR     60  55  83 CALM      30.09S
BAY BRIDGE AP*   N/A     70  61  73 S6        30.07S
CAMBRIDGE*     CLEAR     61  57  88 CALM      30.08R
EASTON*        CLEAR     66  62  85 CALM      30.11S

$$

MDZ017>025-311000-
SOUTHERN MARYLAND

CITY           SKY/WX    TMP DP  RH WIND       PRES   REMARKS
PATUXENT RIVER PTCLDY    65  61  87 SW3       30.08R
ST INIGOES     CLEAR     70  62  76 SW12      30.07S
LEONARDTOWN*   CLEAR     64  59  82 S3        30.10R

$$

MDZ003>005-311000-
NORTH CENTRAL MARYLAND

CITY           SKY/WX    TMP DP  RH WIND       PRES   REMARKS
FREDERICK*     CLEAR     61  61 100 CALM      30.09R
HAGERSTOWN APT FOG       62  60  93 CALM      30.07R VSB 3/4
WESTMINSTER*   CLEAR     63  61  94 CALM      30.07S

$$

MDZ501>502-311000-
WESTERN MARYLAND

CITY           SKY/WX    TMP DP  RH WIND       PRES   REMARKS
OAKLAND*       CLEAR     54 N/A N/A SW8       30.13R
CUMBERLAND*    CLOUDY    57  54  88 CALM      30.12R

$$

VAZ025>031-311000-
SHENANDOAH VALLEY

CITY           SKY/WX    TMP DP  RH WIND       PRES   REMARKS
WINCHESTER*    CLEAR     57  55  94 CALM      30.08R
STAUNTON*      CLEAR     55  53  92 CALM      30.13R

$$

WVZ021-048>050-054>055-311000-
EASTERN WEST VIRGINIA PANHANDLE

CITY           SKY/WX    TMP DP  RH WIND       PRES   REMARKS
MARTINSBURG    CLEAR     58  54  86 CALM      30.07S FOG
PETERSBURG*    MOCLDY    54  50  89 CALM      30.11R FOG

$$

VAZ036>039-050-311000-
CENTRAL FOOTHILLS

CITY           SKY/WX    TMP DP  RH WIND       PRES   REMARKS
CHARLOTTESVILL CLEAR     60  56  86 SW3       30.09R
ORANGE*        CLEAR     55  55 100 CALM      30.09S FOG

$$

VAZ055>057-311000-
NORTH AND CENTRAL PIEDMONT

CITY           SKY/WX    TMP DP  RH WIND       PRES   REMARKS
FREDERICKSBRG* CLEAR     60  60  97 CALM      30.08R
STAFFORD*      CLEAR     55  55 100 CALM      30.12S FOG

$$

NCZ024-NYZ072-PAZ021-071-VAZ022-071-311000-
OTHER REGIONAL OBSERVATIONS

CITY           SKY/WX    TMP DP  RH WIND       PRES   REMARKS
NEW YORK CITY  PTCLDY    68  54  60 CALM      30.09S
PHILADELPHIA   PTCLDY    66  57  72 S5        30.08R
PITTSBURGH     PTCLDY    57  56  96 S3        30.05R FOG
ROANOKE        PTCLDY    59  55  87 CALM      30.14R
RICHMOND       CLEAR     66  61  84 CALM      30.09R
RALEIGH        MOCLDY    67  63  87 CALM      30.09S

$$

ANZ530>537-311000-
MARINE OBSERVATIONS

STATION/POSITION TIME  TEMP    WIND        PRES
                       AIR SEA DIR/SP/G
                 (UTC) (F)     (DEG/KT/KT) (MB)
THOMAS PT LIGHT  0900   71 77  210/ 13/ 13 1018.8R
BALT KEY BRIDGE  0900   68     180/  5/  6 1017.7F
COVE POINT       0900   69     230/ 10/ 12 1018.3R
LEWISETTA        0900   68 77  230/  7/  9 1018.4R
SOLOMONS ISLAND  0900      79                N/A
PINEY POINT      0900          230/ 14/ 16   N/A

$$




USA.gov is the U.S. government's official web portal to all federal, state and local government web resources and services.